Location: Adrasan
(36.3319°N, 30.4314°E)
Time: 11:50:54
(UTC+00:00)

CZ-4B R/B - Pass Details

Date: 09 December 2023
Orbit: 702 x 800 km, 99.0° (Epoch: 21 February)

Event Time Altitude Azimuth Distance (km) Brightness Sun altitude
Rises 15:42:44 0° 155° (SSE) 3,229 6.7 -11.8°
Reaches altitude 10° 15:45:05 10° 151° (SSE) 2,292 5.9 -12.2°
Maximum altitude 15:50:01 57° 73° (ENE) 876 3.5 -13.2°
Drops below altitude 10° 15:54:50 10° 355° (N) 2,244 5.8 -14.1°
Sets 15:57:07 0° 352° (N) 3,155 6.6 -14.5°
